Wind_Gust
11 12 9 14 13 15 17 18 16 19 20 16 18 15 18 11 12 13 14 12 13 15 16 16 18 18 17 18 18 16 18 14 16 18 16 15 11 12 12 12 10 11 12 13 11 12 13 14 12 13 13 12 13 14 14 14 14 14 15 14 13 14 13 12 13 13 13 13 12 13 15 14 13 12 12 12 10 9 9 10 10 8 10 11 12 12 11 13 17 14 15 15 15 14 14 15 13
10 10 12 14 14 19 20 11 21 16 16 18 15 13 17 16 13 16 15 16 14 15 15 19 23 25 22 20 18 15 20 17 12 14 14 13 12 14 12 12 11 11 12 12 11 12 15 16 14 13 12 13 13 14 14 14 14 15 16 16 17 14 13 12 13 14 16 17 17 18 19 19 17 15 14 13 11 9 9 11 14 17 16 15 15 14 15 15 13 14 16 16 16 16 15 14 14
11 12 14 16 18 20 14 18 17 15 17 16 17 19 15 15 17 15 17 19 18 15 14 16 18 16 16 11 19 17 17 11 13 12 16 11 9 15 14 11 11 10 10 12 12 13 15 17 14 14 14 13 14 14 14 14 14 17 17 18 18 16 15 13 13 17 19 20 17 17 18 18 20 19 15 14 14 13 12 13 15 18 21 19 17 15 16 15 12 13 15 15 16 14 16 15 12
9 9 18 15 20 14 21 17 12 16 15 18 21 15 13 15 17 17 17 17 15 12 10 14 14 14 14 21 17 14 15 12 12 12 15 16 16 13 14 12 10 10 12 12 13 14 15 15 15 15 14 14 14 14 14 14 18 19 21 19 18 18 16 15 17 18 19 19 18 21 21 19 16 15 17 17 17 17 15 17 16 17 16 18 18 14 14 12 13 14 15 15 14 14 15 13 11
13 10 13 19 22 17 14 11 10 12 15 21 19 17 14 15 15 15 15 13 13 14 13 13 18 14 21 18 12 12 15 12 14 13 17 16 15 13 14 11 10 12 13 13 14 14 17 16 15 14 15 15 15 15 16 20 20 20 20 17 18 17 17 16 15 19 21 21 19 21 17 15 16 17 19 16 18 17 17 16 13 14 14 17 13 15 16 13 13 13 14 15 15 14 14 14 12
14 14 12 17 18 19 19 15 16 15 20 15 18 19 14 16 15 15 17 15 16 17 13 17 13 13 16 16 16 14 11 9 13 16 13 15 12 14 12 11 11 13 13 13 15 17 18 16 15 15 16 16 16 16 20 20 17 18 19 20 20 19 18 21 20 17 16 15 18 15 14 14 15 14 19 15 18 19 20 15 15 15 15 13 16 15 12 12 14 12 14 14 14 14 14 12 11
14 14 16 14 15 18 17 16 16 18 18 15 18 17 16 15 16 14 14 14 15 20 17 16 15 17 18 14 17 20 15 12 11 14 14 12 16 11 11 10 11 13 13 14 15 18 19 16 15 15 16 16 17 18 18 18 19 18 19 19 24 20 20 23 22 16 14 17 16 15 13 13 15 17 17 18 18 19 19 14 13 12 11 10 11 13 12 11 12 12 15 15 15 14 13 12 11
9 21 9 18 14 23 16 15 17 14 17 14 14 15 15 15 11 12 13 13 16 14 14 13 12 17 14 10 11 13 16 19 18 14 14 16 12 11 11 11 12 13 13 15 15 18 16 18 16 15 16 17 17 18 18 18 18 19 18 20 22 19 20 22 22 18 17 14 14 14 12 14 16 18 18 20 16 19 16 14 14 12 10 11 11 10 10 10 12 14 14 15 14 14 14 13 12
15 20 10 20 16 14 17 16 20 16 18 13 16 15 11 15 13 12 15 15 13 14 15 14 11 16 12 13 18 13 14 18 17 14 14 14 13 13 13 14 13 13 14 15 16 16 17 16 17 17 17 18 19 18 18 19 18 18 18 18 17 19 22 20 19 17 17 14 14 14 14 15 15 16 17 19 13 19 19 16 12 11 10 10 11 10 10 10 13 12 13 13 13 13 13 12 12
17 19 18 19 15 19 16 18 17 16 16 15 16 16 14 13 13 14 12 17 15 12 18 16 16 16 15 14 14 12 11 16 16 15 15 14 14 15 13 14 14 13 15 16 16 15 16 15 20 19 19 18 19 18 18 19 20 19 17 17 18 18 18 19 17 15 13 13 13 14 14 14 15 16 16 18 21 21 16 13 12 12 15 12 10 7 7 11 11 12 12 13 13 12 12 12 12
19 18 15 18 16 18 15 16 18 17 16 14 16 16 14 14 12 17 16 18 16 16 16 14 19 17 12 14 17 8 12 20 17 16 13 12 12 13 13 12 13 13 14 14 14 14 14 16 18 19 18 18 19 19 18 17 18 18 18 19 21 20 17 16 14 16 12 13 13 15 14 13 14 14 14 15 17 19 21 17 12 11 11 13 11 8 10 10 11 12 12 12 12 11 11 11 11
15 15 19 14 15 13 15 16 16 18 16 14 17 16 17 15 13 16 17 14 14 20 22 21 12 12 13 15 17 15 18 20 15 16 13 11 13 13 13 14 14 13 13 12 13 14 14 15 15 16 18 20 20 19 17 18 17 17 18 20 24 24 23 22 19 19 16 16 15 13 13 15 14 14 14 14 15 16 15 13 13 11 10 10 11 14 9 10 11 11 12 12 12 12 11 11 10
15 15 13 15 14 12 16 15 17 15 17 17 16 17 14 19 19 15 15 17 17 14 20 18 12 11 12 12 9 13 19 17 15 14 14 13 11 13 15 14 12 13 13 13 14 14 14 14 16 17 16 17 18 19 17 17 17 18 18 17 20 24 22 16 16 14 13 14 15 17 16 15 16 16 15 14 14 14 14 14 16 13 9 10 8 9 9 10 10 10 11 11 11 12 12 12 11
14 13 13 14 13 14 13 16 15 15 17 17 16 15 19 17 18 18 15 19 19 17 14 16 16 12 16 11 15 15 15 14 13 13 15 14 12 12 12 12 11 13 13 14 15 14 14 15 16 15 16 16 14 14 16 18 18 19 18 18 20 18 14 14 13 16 16 15 14 15 14 15 15 15 16 15 14 13 12 12 11 12 11 10 9 8 10 10 9 9 10 11 11 12 11 11 11
13 13 14 13 14 13 13 12 12 12 19 13 16 13 16 19 15 19 22 16 19 15 12 18 21 14 14 14 13 14 13 15 12 11 13 14 11 11 11 12 12 12 13 13 13 14 14 14 15 15 14 15 15 15 14 16 18 17 17 17 18 18 16 15 16 15 15 14 15 13 12 13 13 14 12 13 14 13 10 10 10 9 10 11 11 10 10 9 9 9 9 9 10 11 12 12 11
12 15 12 12 14 11 15 13 10 11 20 15 14 16 22 22 21 20 23 18 20 19 20 22 26 20 13 16 15 14 12 11 11 11 12 12 12 12 12 12 13 13 13 13 13 14 14 15 14 15 15 14 13 13 13 13 14 17 17 16 17 16 15 15 15 14 14 15 15 14 14 12 11 11 13 12 10 11 10 10 8 7 8 9 9 9 8 9 9 10 9 10 10 11 12 12 12
10 16 12 12 16 12 16 14 13 18 18 15 11 11 17 19 18 22 18 20 23 22 24 26 19 16 17 17 15 15 13 11 10 10 11 11 11 13 13 12 13 13 12 14 14 15 13 13 14 13 14 13 13 12 13 12 13 13 12 14 16 17 15 15 14 13 12 12 12 12 12 11 10 9 11 11 10 12 9 9 8 7 7 7 7 8 8 7 8 9 10 10 11 11 11 11 12
15 12 12 16 15 16 16 18 18 13 16 17 16 14 17 17 14 14 16 22 24 23 23 21 20 19 16 13 13 13 15 16 13 11 12 13 12 12 13 13 13 14 13 13 13 14 13 12 13 13 13 13 12 12 12 11 11 11 13 13 13 12 12 12 12 12 10 11 11 11 12 11 11 10 9 9 10 10 13 8 8 8 7 6 7 8 8 8 8 8 9 10 11 10 10 19 17
13 12 16 19 18 19 13 15 14 13 18 18 18 18 20 18 12 15 19 18 20 22 21 17 20 17 16 16 14 15 17 18 16 14 14 15 16 15 14 14 14 13 14 14 14 14 12 12 13 14 13 12 11 11 11 11 12 12 13 12 11 10 12 13 12 12 12 11 11 11 10 10 10 10 10 13 11 9 9 9 9 9 7 7 8 8 8 9 9 10 10 11 9 11 18 18 18
16 13 18 21 19 21 18 15 18 18 19 19 20 22 25 18 16 18 22 20 20 23 20 18 18 16 16 15 16 15 15 15 15 14 14 15 15 15 14 14 14 14 14 14 14 12 12 13 13 13 12 12 12 13 12 13 13 12 12 12 11 10 10 11 11 12 11 11 11 10 9 9 9 9 10 11 10 12 13 9 9 9 10 10 10 12 12 12 11 13 13 11 12 13 19 20 14
16 18 19 19 15 19 19 18 17 17 15 20 21 20 24 22 18 13 13 20 24 20 19 17 18 16 15 15 15 15 14 13 13 13 14 15 14 15 14 14 15 13 12 12 13 12 12 13 12 12 12 13 12 12 12 13 11 10 11 12 11 11 12 12 11 10 11 12 12 10 11 10 9 9 9 10 11 9 9 8 12 11 9 10 10 13 12 12 15 15 17 18 16 19 15 10 11
22 23 18 15 20 22 18 19 17 18 18 22 19 20 21 19 24 24 23 21 18 16 14 15 16 16 14 15 14 14 15 14 13 14 15 15 15 14 13 13 13 12 13 13 13 13 13 13 12 12 12 12 12 12 12 11 11 12 12 11 11 13 12 12 13 12 12 11 12 12 10 9 9 10 10 10 11 11 11 11 11 9 8 9 9 11 10 11 12 12 13 13 11 11 11 10 10
27 24 22 23 22 21 16 17 15 15 21 21 22 21 21 22 24 24 24 23 17 14 12 13 13 14 15 15 14 16 15 15 16 15 14 15 15 14 13 13 13 13 13 14 12 13 13 12 11 11 12 12 12 11 11 12 13 13 11 12 12 13 12 13 14 13 13 13 13 12 11 10 10 10 10 10 11 13 13 12 11 10 10 10 10 13 11 10 12 12 12 11 9 11 10 10 11
26 32 22 23 21 22 18 20 20 23 24 24 22 18 22 20 24 22 24 18 16 15 14 14 13 14 13 14 15 15 14 16 16 16 13 13 13 14 14 13 13 12 13 12 13 13 13 12 11 11 12 12 11 10 10 12 12 12 12 11 13 13 13 14 15 14 13 15 15 13 11 11 11 11 11 12 13 13 13 12 11 11 12 11 11 12 14 12 11 12 12 11 11 10 11 12 9
27 30 22 23 22 23 22 23 25 25 25 24 22 25 23 22 23 18 21 17 15 14 13 13 16 16 14 16 16 15 16 16 15 14 12 13 12 13 14 14 13 14 14 12 12 13 13 12 11 12 12 11 11 10 12 12 13 13 13 14 14 11 14 14 14 14 14 15 15 13 13 13 12 13 13 13 12 13 12 12 13 12 11 12 12 11 12 13 12 12 12 12 10 9 10 10 10
24 26 24 25 25 24 24 25 23 23 24 22 24 24 22 22 23 26 18 16 14 13 14 14 16 17 15 15 15 15 16 15 13 14 14 13 14 15 15 15 14 14 13 12 12 13 13 12 12 12 12 12 11 11 13 13 13 13 13 12 12 12 14 13 12 14 14 15 15 14 13 13 12 14 13 13 14 12 12 12 12 12 12 12 12 12 12 13 14 13 12 14 14 10 12 8 11
24 27 27 27 24 22 20 24 23 22 25 23 27 24 21 16 13 22 17 16 13 14 14 13 15 17 15 14 14 13 15 15 15 13 14 14 15 15 14 15 16 15 14 13 13 13 13 12 12 12 12 11 11 12 12 12 12 13 12 12 13 13 11 11 12 13 14 14 14 13 13 13 12 13 14 13 13 13 13 13 14 13 14 14 14 15 13 13 13 13 13 12 12 14 10 11 13
28 29 29 27 25 24 23 23 23 21 28 26 27 25 21 22 23 23 17 15 13 15 14 14 15 16 15 14 14 13 14 13 13 13 16 14 16 16 15 16 15 15 15 13 13 12 12 12 12 12 11 11 11 11 11 12 12 12 12 13 13 12 9 11 12 12 12 12 12 12 12 12 11 12 12 13 12 13 13 13 13 14 15 15 15 15 15 14 14 15 14 14 11 11 9 9 11
28 24 31 25 22 25 16 18 16 17 23 14 18 25 25 24 22 18 16 13 14 13 15 14 15 15 15 14 15 15 15 13 13 14 13 14 15 16 16 15 15 15 15 13 12 11 11 11 11 11 11 10 11 11 11 11 11 12 13 12 11 10 11 11 12 12 11 10 10 11 11 12 11 11 10 12 12 13 12 12 13 13 13 14 15 17 16 13 13 13 12 12 12 12 10 12 12
25 21 26 23 24 25 16 15 14 13 14 11 13 24 25 24 20 18 14 14 13 14 16 15 15 15 15 14 15 15 14 14 14 14 14 14 14 14 14 15 14 13 13 13 10 11 9 8 9 10 10 10 10 11 11 12 12 12 12 11 10 10 11 11 11 10 9 9 9 9 10 11 11 10 12 11 12 12 12 12 12 12 13 13 13 16 16 15 15 14 13 12 10 13 11 10 10
20 16 16 25 22 27 19 19 20 24 14 15 17 26 24 21 19 17 14 13 14 17 17 16 15 14 15 15 16 16 14 14 13 14 13 13 13 14 12 11 11 12 12 10 9 9 9 8 9 8 10 9 10 11 12 11 11 13 12 11 11 11 9 11 12 11 10 9 9 9 9 9 10 11 10 12 11 11 12 12 11 12 13 12 14 15 15 15 14 15 15 15 11 11 11 12 12
17 20 28 26 25 26 21 16 15 18 15 12 15 28 25 21 20 16 15 15 13 18 18 17 16 16 15 16 16 17 16 14 13 12 13 12 12 13 12 11 10 11 10 10 10 9 10 10 10 10 10 11 11 12 11 11 11 12 13 10 11 8 10 11 10 11 11 10 9 9 10 10 10 10 10 11 11 11 12 12 11 12 12 12 14 13 13 15 15 13 12 13 14 13 11 13 13
19 21 22 25 23 23 25 22 19 20 28 25 17 27 22 22 19 17 16 15 15 19 19 18 15 15 16 17 16 16 16 16 15 14 13 13 12 13 13 11 10 9 10 10 11 10 10 11 10 11 11 12 12 12 12 12 12 12 12 12 11 10 11 11 10 10 10 10 11 11 10 10 11 9 10 10 10 11 10 10 9 10 10 12 11 12 13 13 14 16 12 12 12 13 13 14 13
26 22 27 24 25 25 31 24 25 23 22 28 24 28 25 22 20 20 17 16 18 21 19 18 18 17 17 17 17 16 16 16 16 15 13 12 12 12 11 11 10 10 10 10 10 11 11 11 11 11 11 12 12 13 13 13 13 12 12 14 11 11 10 10 11 11 11 11 11 12 12 12 11 12 11 11 11 12 11 10 10 10 10 10 10 11 11 12 13 13 14 11 13 13 11 13 13
24 23 25 28 25 23 22 24 19 20 22 25 24 25 24 23 22 21 19 19 20 21 20 18 18 17 17 17 17 17 18 17 15 13 11 11 11 11 11 10 10 10 10 10 11 11 11 11 11 11 11 13 13 13 12 11 11 12 12 12 12 11 10 9 10 10 11 11 11 12 13 12 13 12 12 12 11 13 12 10 11 10 11 10 10 12 11 11 12 12 14 13 12 13 12 12 14
24 22 24 25 26 26 28 23 19 18 23 26 23 27 25 24 23 22 21 21 22 21 19 19 19 17 17 17 18 18 18 17 15 12 11 11 11 10 10 10 9 10 10 10 10 11 12 11 11 12 13 14 13 13 15 15 15 15 16 14 14 14 13 13 12 13 12 12 13 14 14 13 14 13 13 13 12 12 12 11 11 11 11 11 9 11 11 11 11 12 11 14 12 12 11 12 13
28 25 23 26 28 26 23 22 19 18 25 26 25 25 26 25 25 23 21 21 22 22 21 20 18 18 19 18 18 18 17 16 14 14 13 12 12 12 10 10 10 10 11 11 11 12 12 14 13 14 13 13 15 17 17 17 17 17 17 17 18 15 16 14 14 13 14 14 15 16 16 15 14 14 14 13 13 12 13 12 11 11 12 12 11 11 10 12 11 11 11 11 13 13 12 10 10
23 24 25 29 23 26 20 20 16 15 20 26 24 26 25 24 22 22 20 21 23 22 21 21 20 19 19 19 18 17 16 15 15 14 13 12 14 12 11 11 10 11 12 12 12 12 12 13 13 14 14 14 15 16 17 16 16 18 18 18 18 18 18 17 18 16 16 16 16 17 17 17 16 16 15 15 14 14 14 14 13 12 12 12 12 13 12 11 12 12 11 13 11 13 13 12 10
24 26 25 25 27 24 21 21 19 21 23 27 24 28 26 24 23 21 22 22 22 21 21 21 20 20 20 20 19 17 16 16 15 16 14 14 13 13 12 11 11 11 11 12 12 13 14 14 15 15 16 16 16 17 17 18 16 16 17 18 19 19 16 18 18 18 17 18 17 17 17 16 17 17 17 16 16 15 15 15 15 14 14 13 13 13 12 12 12 12 11 12 13 12 13 12 11
23 24 22 24 26 23 26 21 16 16 22 26 27 27 28 25 23 23 21 21 21 20 21 21 19 21 20 19 19 17 17 17 16 15 15 14 13 13 12 13 12 12 13 14 14 14 14 15 15 16 15 15 16 17 16 16 15 15 15 16 17 17 20 18 17 17 19 19 20 20 19 20 20 20 20 19 18 17 16 17 16 16 16 15 15 15 14 15 12 13 13 11 11 14 14 10 11
20 22 24 28 21 20 22 23 22 22 23 22 29 28 26 21 21 22 21 21 23 21 21 21 20 19 18 17 18 17 16 15 15 15 14 14 14 14 14 13 13 14 15 15 15 15 15 15 16 16 15 15 17 17 18 17 17 17 17 17 16 17 17 19 19 21 20 21 22 22 23 23 22 22 22 24 25 20 19 19 18 18 17 17 16 16 16 15 14 13 13 12 12 12 14 11 12
21 21 23 21 20 21 22 26 26 24 21 14 11 17 25 19 20 21 19 21 22 21 21 21 21 20 19 19 17 16 16 15 15 15 14 14 14 13 14 14 14 15 15 14 15 16 16 16 16 17 16 17 18 17 18 18 18 19 21 21 22 22 22 22 25 26 26 25 26 23 23 25 25 23 25 24 27 28 26 22 21 22 20 19 18 17 17 15 15 15 14 14 14 12 13 14 15
21 21 17 21 21 24 27 26 19 14 18 15 16 14 20 17 19 17 17 19 20 20 21 21 21 20 19 19 19 18 18 16 15 16 16 16 14 14 15 15 15 16 15 15 15 16 17 17 16 17 17 18 18 18 19 19 18 20 20 21 21 22 23 22 22 22 22 24 25 24 24 21 22 22 23 22 25 26 29 28 27 27 26 21 20 19 18 17 18 16 16 14 15 14 12 15 13
21 22 18 20 23 23 23 15 11 21 16 18 15 18 21 21 19 14 15 19 19 20 20 20 21 20 19 19 20 18 19 16 17 17 16 16 16 16 17 16 16 17 15 16 16 16 17 18 18 18 18 20 20 19 20 21 20 20 20 21 22 22 22 23 23 22 21 22 24 24 24 24 24 24 24 25 26 24 25 23 25 24 27 28 28 24 19 18 19 18 16 16 16 15 13 15 14
23 21 21 21 21 20 16 14 17 14 13 17 13 12 16 19 18 14 12 18 18 19 19 18 19 18 18 19 20 19 19 19 18 19 18 17 18 18 17 18 17 17 18 18 18 18 18 20 20 19 21 21 22 21 22 22 22 22 22 22 22 22 22 22 22 22 23 23 22 24 24 25 25 24 25 25 26 25 22 22 24 24 26 26 25 27 25 19 18 19 19 18 17 16 15 15 13
20 23 19 19 17 14 13 18 14 11 14 14 13 16 17 20 15 17 14 16 17 17 16 17 18 19 18 18 19 19 18 18 19 19 19 18 18 18 18 19 20 19 19 19 19 19 20 20 21 21 21 22 22 21 22 21 20 21 21 21 21 22 23 23 22 24 23 23 23 23 23 25 26 25 24 25 25 24 24 22 24 24 23 25 25 25 26 23 20 21 20 20 19 17 16 15 16
26 25 25 22 18 14 12 13 9 13 12 14 12 11 16 19 13 15 13 16 14 14 16 16 18 17 18 17 18 19 19 20 21 20 21 21 20 21 20 21 21 20 19 20 20 20 21 21 21 23 22 22 22 22 21 21 21 22 22 22 22 23 23 23 25 25 25 24 25 25 24 25 24 25 25 24 25 25 24 24 24 24 25 26 27 22 24 25 24 20 18 18 18 19 19 16 16
30 30 26 23 16 12 13 13 13 14 13 11 12 11 14 12 18 16 16 13 12 13 16 16 17 18 18 16 18 19 20 20 21 22 22 21 21 21 20 21 20 20 20 21 21 21 22 22 22 23 23 22 22 22 22 22 22 23 21 21 21 21 22 23 23 23 24 24 24 24 25 25 25 25 24 25 25 27 25 24 22 24 26 25 24 23 22 23 21 18 18 17 19 18 19 18 15
25 27 26 21 18 16 13 15 9 9 16 16 10 11 13 19 18 18 13 13 14 13 15 17 17 18 17 18 18 19 20 20 21 20 19 19 20 20 20 20 19 20 21 20 21 20 20 20 21 23 23 21 21 21 21 21 21 22 22 22 20 20 20 21 20 21 22 22 23 24 24 26 26 27 26 26 25 26 26 25 25 26 26 26 24 25 24 21 20 19 18 18 18 21 21 17 16
24 28 26 19 16 12 8 10 12 11 18 13 11 10 13 20 18 13 14 13 13 13 14 15 16 17 17 18 18 19 19 19 19 18 19 19 19 20 19 19 20 20 19 21 20 19 19 20 20 21 21 20 20 21 21 20 21 21 21 22 21 20 20 20 20 22 22 22 23 23 24 26 26 26 27 25 26 27 25 25 24 25 24 25 25 24 24 20 17 20 20 20 19 20 20 18 16
25 17 28 22 22 21 13 13 10 15 15 16 11 14 17 18 19 15 15 15 13 14 16 16 17 17 16 19 19 19 18 17 16 18 19 19 19 18 18 19 18 19 18 19 18 19 18 19 20 21 21 21 21 21 21 21 21 22 22 22 21 21 21 21 22 22 21 22 22 23 24 25 25 27 26 24 25 25 25 25 24 24 25 25 24 24 24 22 19 19 22 22 17 17 17 19 17
19 16 14 20 13 11 14 15 15 11 13 10 16 9 11 16 17 17 17 16 15 15 17 17 18 18 17 18 17 17 17 16 16 17 18 17 17 16 18 17 18 18 17 17 17 17 18 18 19 20 21 21 22 22 21 21 22 22 21 21 21 20 20 20 20 21 21 19 21 22 24 23 24 25 23 24 24 25 24 24 25 25 25 25 24 24 24 22 21 21 21 17 17 16 15 17 17
22 19 20 15 15 22 17 9 11 8 12 5 9 13 20 22 18 18 18 18 17 17 19 19 19 19 16 16 16 16 16 16 15 16 16 16 16 16 18 17 17 17 18 18 18 18 18 19 20 20 20 21 21 21 21 21 20 20 20 20 20 20 20 20 21 21 20 20 21 21 22 24 23 23 24 23 24 24 24 25 26 25 25 25 26 24 24 23 22 21 20 16 16 14 14 16 17
26 21 19 17 13 13 16 12 10 11 13 11 15 13 18 20 17 21 21 19 18 19 19 19 19 19 17 16 15 16 16 16 16 16 16 16 16 16 17 18 18 18 17 17 18 17 18 19 20 20 21 21 20 21 20 20 20 20 20 21 21 21 21 20 21 22 21 22 22 22 22 24 23 23 23 24 24 25 26 24 26 26 25 25 25 24 24 24 22 21 16 16 14 13 15 14 16
17 18 25 21 13 17 14 18 10 10 8 6 15 12 14 18 18 23 24 23 21 20 20 20 20 18 17 16 17 16 16 15 15 16 17 16 16 17 18 17 19 17 17 19 20 21 21 20 20 20 21 21 20 21 20 20 20 19 19 20 20 21 21 20 21 21 21 24 25 24 23 23 23 23 24 26 27 26 25 26 25 26 26 26 26 26 25 24 21 20 19 18 18 16 17 20 18
15 21 18 12 16 14 13 9 16 19 9 8 14 16 12 20 17 25 26 24 23 23 21 19 19 18 18 18 18 18 17 16 17 17 17 17 17 17 17 17 19 19 19 19 20 20 21 20 20 19 20 20 20 21 19 20 20 21 21 20 21 22 22 22 22 22 24 24 25 25 24 22 23 24 24 24 25 25 26 27 27 27 27 27 28 27 26 25 23 19 18 17 13 14 17 20 17
17 18 17 17 14 12 17 14 16 13 16 11 11 11 17 17 16 23 25 24 24 23 22 21 20 18 18 17 16 17 17 17 17 17 17 18 17 17 18 17 19 18 19 19 20 20 20 20 21 20 20 20 20 19 20 20 21 23 23 24 24 23 24 25 24 24 24 25 24 25 25 24 24 25 25 25 25 25 26 27 28 28 29 29 28 28 28 27 23 19 18 17 17 17 20 21 14
12 18 16 17 18 16 15 13 14 15 16 14 13 14 17 16 10 17 24 24 24 22 22 22 21 20 19 18 16 17 18 17 16 16 16 16 16 17 18 19 19 20 22 21 21 21 21 20 21 22 22 23 22 23 22 22 22 24 25 25 26 25 26 27 25 25 26 27 25 25 24 24 23 24 25 25 26 24 28 28 27 29 31 31 29 31 29 26 26 19 18 15 16 17 17 14 10
Wind_Speed
7 5 2 5 5 5 6 6 6 5 6 5 6 4 6 3 3 4 5 4 3 6 6 7 8 8 7 7 9 8 10 6 6 6 5 4 4 6 7 6 6 6 7 6 4 4 5 9 7 10 9 9 10 10 9 10 10 11 9 10 9 9 9 9 10 10 10 10 9 11 12 11 10 9 9 9 8 7 7 8 8 6 7 5 5 6 7 6 5 7 9 10 10 9 9 6 4
2 1 4 5 5 6 6 1 5 5 4 6 4 4 6 6 4 7 6 8 6 5 5 7 9 11 11 11 7 6 11 9 5 5 5 5 5 6 6 5 6 6 5 3 4 4 8 7 11 9 9 9 9 10 9 10 10 11 12 12 11 10 10 9 9 10 12 13 14 13 12 12 12 11 9 9 7 7 6 8 8 10 9 10 10 10 10 7 8 8 9 8 9 8 8 7 5
3 3 4 6 7 7 3 5 5 5 5 4 5 6 4 5 7 7 9 9 8 6 5 6 7 5 6 1 6 8 6 5 6 5 6 5 2 6 7 5 5 5 5 4 5 6 5 7 8 8 10 9 10 10 10 11 12 14 12 11 9 10 10 9 10 12 12 13 12 11 10 10 10 9 9 8 8 7 7 6 9 11 15 11 11 6 4 5 6 7 9 9 6 5 7 6 5
3 1 7 5 6 3 7 4 3 5 4 6 7 5 4 6 8 8 8 7 6 3 2 2 2 5 4 6 6 7 7 5 6 5 4 5 6 5 5 6 5 4 4 4 4 5 7 8 10 10 10 10 10 11 10 11 14 14 12 11 11 10 10 10 9 10 10 11 12 10 10 10 8 8 8 9 9 8 8 8 9 12 11 8 7 5 4 6 6 6 7 7 7 6 6 5 6
5 3 3 7 7 5 4 2 0 3 2 7 6 5 5 6 7 7 7 5 5 5 3 3 4 6 11 8 3 2 6 5 7 8 5 5 7 6 8 5 4 5 5 6 5 6 9 11 10 11 11 11 11 11 13 16 14 12 12 11 10 10 10 10 11 11 10 10 10 8 8 7 7 8 7 9 8 8 8 9 9 10 9 8 6 7 7 7 7 6 7 8 8 7 7 6 6
6 5 1 6 4 5 4 5 5 3 6 3 6 7 6 7 7 7 7 6 7 6 5 5 4 4 6 7 5 4 4 2 5 7 5 6 7 7 4 5 5 6 6 5 6 8 9 11 11 12 11 12 12 13 15 13 12 12 11 11 10 11 10 10 10 10 10 9 8 7 6 6 5 8 8 8 9 7 7 8 8 9 7 8 8 7 8 7 6 5 7 8 8 8 7 6 5
3 4 4 3 3 5 5 4 4 5 7 5 7 7 7 7 7 6 6 6 6 8 7 6 5 7 7 4 7 8 7 6 4 6 7 6 9 6 5 3 4 6 6 6 7 8 10 12 12 12 12 13 13 14 13 13 13 12 10 10 11 11 10 10 11 10 9 9 9 6 5 5 5 6 6 8 8 7 7 7 9 8 8 7 7 6 5 6 6 7 8 9 9 8 7 5 4
2 8 0 6 3 7 4 4 4 4 5 5 5 7 6 7 3 4 4 5 7 5 6 5 3 6 6 2 2 5 9 11 10 7 8 8 6 5 6 6 5 6 7 7 7 9 11 13 13 12 12 13 13 14 14 13 12 11 10 10 9 10 11 10 10 10 9 9 9 9 9 8 6 6 6 7 8 7 8 8 8 5 6 8 6 6 7 6 6 7 8 8 8 7 5 4 3
4 7 1 7 5 2 5 5 7 6 8 5 7 7 6 7 6 5 6 6 4 6 6 6 3 7 3 5 7 5 6 10 8 7 8 7 6 6 5 6 6 6 7 7 7 8 7 11 13 13 13 14 14 13 12 12 12 11 11 11 11 10 10 10 9 9 9 9 8 8 8 9 8 5 6 5 6 7 7 7 7 5 6 6 4 4 4 7 7 7 7 6 6 5 4 3 3
5 6 6 5 4 6 4 5 5 5 6 6 7 7 6 5 5 4 5 8 6 4 7 7 8 7 4 6 6 5 2 6 6 8 8 7 6 5 4 7 7 7 7 7 7 7 6 10 12 13 14 14 14 13 13 13 12 11 10 10 11 10 9 9 8 7 7 7 7 7 8 7 7 7 6 6 5 5 6 6 5 5 5 4 4 3 5 5 6 6 5 6 5 4 3 3 4
5 5 5 5 5 4 4 4 6 7 7 6 7 8 6 5 5 6 7 8 7 7 8 6 7 7 4 7 6 2 2 7 8 9 7 6 6 6 6 5 6 6 6 7 6 6 5 7 12 13 12 14 13 11 12 13 12 11 9 9 9 8 7 6 6 6 5 6 6 6 6 5 6 6 7 7 7 5 4 5 5 5 3 2 2 2 2 5 5 5 4 4 3 3 2 3 4
4 4 5 3 2 1 3 4 5 7 7 6 7 8 7 7 5 7 8 6 5 10 11 12 3 5 5 7 6 6 10 12 10 9 6 5 6 6 8 7 8 5 6 6 6 6 5 6 7 10 13 14 11 11 11 12 11 10 9 8 7 7 6 4 4 5 6 6 5 5 4 3 4 4 5 6 7 6 5 5 6 4 4 4 3 1 2 4 4 4 3 4 3 2 2 2 3
4 4 3 1 2 1 4 5 5 6 6 7 7 7 5 9 10 7 7 8 9 6 10 10 4 4 4 4 2 7 12 10 9 8 7 5 5 6 7 3 4 5 4 6 6 7 7 6 7 7 8 8 10 10 10 9 8 7 6 5 5 4 4 4 3 5 6 6 5 4 3 2 2 3 3 3 3 6 6 5 6 6 6 6 5 4 5 5 4 4 4 4 4 3 3 3 3
3 2 3 3 2 2 2 5 4 4 5 7 6 7 9 8 10 10 6 10 11 9 6 9 7 4 8 2 3 5 7 8 6 5 4 5 3 5 6 4 5 5 6 7 6 6 6 7 6 7 6 6 6 6 9 8 6 3 4 3 3 5 6 5 6 7 6 5 5 4 3 4 3 2 1 1 1 2 4 7 7 5 7 7 6 6 6 5 6 4 5 5 5 4 4 4 3
3 3 1 2 2 2 3 2 2 1 7 5 7 5 8 9 7 10 11 8 10 7 1 10 9 4 3 0 4 6 5 3 4 4 4 4 5 6 6 5 5 6 6 6 6 6 6 6 6 6 6 6 7 6 5 7 7 7 6 6 6 6 6 6 6 6 6 6 5 5 4 2 2 2 3 2 2 2 2 4 6 7 6 6 6 6 6 6 6 6 5 5 5 5 5 5 6
1 4 1 2 2 2 4 2 1 2 7 6 6 6 11 11 11 10 11 9 8 11 12 7 12 5 5 9 7 3 4 3 4 3 3 4 4 5 5 5 5 5 5 5 5 5 5 6 5 6 6 6 5 5 5 5 6 5 6 6 7 6 5 4 4 5 4 4 4 4 3 3 2 2 1 5 1 3 4 6 3 4 5 4 5 4 4 4 4 6 5 5 4 4 4 6 6
1 5 1 1 3 3 5 3 3 6 7 6 3 2 7 7 8 11 10 11 13 13 13 10 7 7 10 8 5 2 4 4 3 3 3 2 2 4 3 4 4 5 3 5 5 4 5 5 6 4 6 5 4 3 3 4 5 2 5 5 4 4 4 3 3 2 2 1 3 3 4 1 1 1 3 1 3 4 1 5 5 5 5 5 4 4 5 5 5 5 6 4 5 4 5 6 8
5 1 1 4 4 5 6 8 7 4 6 7 7 6 7 8 6 6 7 13 14 13 12 7 10 11 8 6 4 5 3 5 5 5 4 4 3 4 4 5 4 4 4 5 5 4 4 5 6 6 5 5 4 2 2 3 3 4 5 4 4 3 4 3 4 4 4 4 1 2 3 3 2 1 1 2 3 3 6 6 6 6 5 5 5 5 6 6 6 6 6 6 5 6 6 8 8
2 2 4 7 6 7 5 6 6 4 8 9 9 9 9 9 4 6 8 10 12 10 10 7 9 9 9 6 5 6 5 5 5 6 7 8 7 7 5 5 5 4 5 4 5 5 4 4 5 6 6 4 3 3 2 4 5 4 4 4 3 3 4 5 4 5 5 4 4 4 3 3 3 2 2 3 4 3 3 1 6 7 5 5 6 6 6 6 7 7 7 8 7 8 8 6 7
4 3 6 8 9 10 9 7 9 10 8 10 10 11 12 9 7 8 12 11 12 13 9 9 8 8 7 6 6 6 5 6 6 6 8 9 8 7 7 6 5 5 5 5 4 3 4 4 5 5 5 5 5 4 4 5 4 3 3 2 2 2 2 2 4 4 4 5 4 4 3 3 3 2 2 4 6 4 5 6 5 6 7 7 8 8 9 10 8 10 10 9 10 6 6 9 5
5 5 6 7 7 8 9 9 9 8 7 10 11 11 14 12 9 4 5 11 13 9 8 6 7 7 6 8 7 6 6 6 6 7 8 8 8 6 6 6 5 5 4 4 4 4 4 5 4 5 5 5 4 3 4 4 3 2 2 2 2 3 3 4 3 3 4 5 5 4 4 2 2 3 3 4 4 3 3 1 3 3 2 2 7 5 5 3 7 5 6 8 5 8 6 3 3
8 11 9 7 10 9 9 10 9 9 10 11 10 11 11 9 13 14 13 11 7 6 6 6 7 6 6 7 7 6 7 6 7 8 8 8 8 7 6 5 5 5 4 5 5 5 6 5 5 4 5 5 4 4 4 3 3 4 4 3 3 3 3 4 4 4 4 5 5 5 3 2 2 3 4 4 4 4 3 3 3 3 2 2 2 4 3 4 4 4 5 4 3 3 4 3 3
10 11 12 12 10 10 7 8 7 7 10 12 12 12 11 12 13 13 14 12 8 6 5 6 6 5 6 5 5 6 6 6 6 7 7 8 7 7 6 5 5 5 5 5 4 5 5 5 4 3 4 4 5 4 4 4 4 4 4 4 4 4 4 5 5 5 5 6 6 5 4 4 4 3 4 4 5 5 5 4 4 3 3 3 3 5 4 4 4 4 4 4 3 4 3 3 3
11 12 12 13 11 12 9 11 12 13 14 13 10 10 12 12 13 9 13 10 8 7 6 6 7 5 4 6 7 5 5 6 7 7 5 6 6 6 6 6 5 5 6 6 5 5 5 5 4 3 3 4 4 4 4 4 4 4 4 4 5 5 4 5 5 5 5 5 6 5 5 4 4 4 5 5 5 5 5 5 4 4 4 4 4 4 5 4 4 4 4 4 4 3 3 4 2
12 13 12 13 12 12 12 13 15 15 15 12 13 15 13 13 12 10 12 9 7 6 6 7 9 6 5 6 6 5 6 7 7 6 5 5 5 7 7 6 6 7 7 6 5 6 5 3 3 3 3 4 4 2 4 4 4 4 5 5 5 4 5 5 5 5 4 5 6 5 5 5 5 5 6 5 5 5 5 5 5 5 4 4 5 4 5 5 5 4 5 4 3 3 3 3 3
11 15 13 14 14 14 13 15 13 12 10 10 13 14 12 13 14 14 10 8 6 5 6 6 10 8 7 6 6 6 6 6 6 7 6 5 7 8 8 7 6 7 6 6 5 5 4 3 4 4 5 4 3 4 4 4 5 5 5 5 4 4 4 3 4 4 4 4 5 5 5 4 4 5 5 5 5 5 5 5 4 4 4 4 4 4 4 5 5 5 4 5 5 3 4 2 4
13 16 16 15 13 12 11 13 13 12 13 12 14 13 11 7 2 8 9 7 6 6 7 7 8 9 8 6 5 5 6 6 7 5 7 7 7 7 7 8 7 6 5 6 5 4 3 3 4 4 4 4 3 4 4 5 5 5 5 5 5 4 3 3 3 4 4 4 4 3 4 4 4 4 5 5 4 4 3 4 4 4 4 5 5 6 5 5 5 5 5 4 4 5 3 3 4
16 17 17 16 14 13 13 13 13 10 13 15 15 14 12 12 11 10 8 7 6 7 7 8 8 8 7 7 6 6 5 5 5 6 9 8 7 7 7 7 7 6 6 4 3 3 4 4 4 4 4 3 3 4 4 5 4 5 4 4 4 4 3 3 4 4 3 4 3 2 2 3 3 2 4 4 3 3 4 4 3 3 4 4 5 6 6 5 6 6 6 6 5 4 3 2 1
16 13 13 14 12 10 7 9 8 9 8 3 7 14 15 13 12 10 8 5 6 6 7 7 8 7 7 6 6 6 6 5 5 6 7 6 7 6 7 6 6 6 5 4 3 3 4 3 3 3 3 3 3 4 3 4 4 4 4 4 4 4 4 4 4 4 3 2 2 2 2 2 2 3 2 4 5 3 3 3 3 3 3 4 4 6 6 5 4 4 4 4 4 4 3 1 2
15 11 11 12 11 11 7 6 6 6 5 3 2 7 10 12 11 9 6 6 6 7 7 7 6 6 6 6 6 7 6 6 6 6 6 6 6 6 7 6 4 4 4 4 3 3 2 1 1 1 2 3 4 4 4 4 4 4 4 4 4 3 4 4 4 3 2 1 1 2 3 3 3 3 4 4 5 4 3 3 4 3 4 5 5 5 6 5 5 5 4 4 2 5 2 2 2
7 6 6 8 8 10 8 8 10 10 3 7 6 9 10 11 11 8 6 5 6 8 8 7 6 6 6 6 6 6 7 6 5 6 7 6 6 5 5 4 4 4 4 4 3 2 1 2 2 2 3 3 4 5 5 5 5 5 5 4 4 4 3 3 3 3 2 2 2 2 3 3 3 4 4 4 4 4 3 3 4 4 5 5 5 5 6 5 5 5 5 6 4 2 2 1 3
6 7 10 8 9 9 8 5 6 6 5 3 5 10 10 11 10 8 7 6 6 9 9 8 7 6 7 6 7 7 7 6 6 5 6 6 5 5 5 5 3 4 4 3 2 1 3 3 3 3 4 4 4 5 5 4 4 4 5 4 3 2 3 3 3 3 3 3 2 2 3 4 3 3 4 4 4 4 3 3 3 4 5 5 5 5 5 5 5 5 4 5 5 5 2 1 1
5 8 10 9 10 10 11 11 9 11 11 9 5 10 8 11 10 9 7 7 8 10 10 8 7 7 7 7 6 7 7 7 7 6 6 5 5 5 4 4 3 3 3 3 3 3 3 3 3 4 5 5 5 5 6 5 5 5 5 4 3 2 2 2 3 2 2 2 3 3 3 3 4 3 4 3 4 4 3 3 2 3 4 4 4 4 5 5 5 6 4 4 5 4 3 2 1
10 5 10 10 11 10 11 12 12 11 10 13 12 11 13 12 11 10 8 8 9 10 10 9 8 7 8 7 7 7 7 7 7 6 6 5 5 5 4 3 3 3 2 2 3 4 4 3 3 4 4 5 5 6 6 5 5 5 4 5 3 3 2 3 3 3 3 3 3 4 4 3 4 4 4 4 4 5 4 3 4 3 4 3 3 4 3 4 5 5 6 4 5 5 3 3 1
9 8 10 10 9 10 12 8 7 9 11 14 13 14 13 13 12 11 10 10 11 11 9 8 8 8 8 8 8 8 8 7 6 5 4 4 3 3 3 2 3 3 3 4 4 4 4 4 3 4 4 6 6 5 5 4 4 4 5 5 5 4 3 2 2 3 4 4 3 4 4 4 4 5 5 4 4 5 4 4 4 4 4 3 3 5 4 3 4 5 6 5 3 5 4 3 3
14 10 9 10 10 10 11 11 8 8 12 12 12 11 13 13 12 11 11 11 11 11 9 8 8 7 7 8 8 8 8 8 6 5 3 3 3 2 1 2 2 3 3 3 4 4 4 4 4 5 6 6 6 6 6 6 6 6 7 6 6 5 5 5 4 4 4 4 4 5 5 4 5 4 5 5 5 5 5 4 4 4 4 4 3 4 4 4 3 4 5 6 5 4 3 3 2
16 12 10 12 12 12 12 11 9 9 12 13 13 13 14 11 10 11 11 11 12 12 11 9 8 8 8 8 8 9 8 8 6 6 5 4 3 2 2 2 2 3 4 4 4 5 5 6 6 7 5 6 6 7 7 7 7 7 7 7 7 6 6 6 5 5 6 5 7 7 6 5 6 6 5 5 5 5 5 5 4 5 5 4 4 4 4 5 4 4 4 4 5 6 4 3 1
10 12 14 11 11 11 10 9 6 4 9 12 13 14 13 12 11 11 10 11 12 11 11 11 10 10 9 10 9 8 7 6 7 6 5 5 5 4 2 3 3 4 5 4 5 5 6 6 7 7 6 7 7 8 7 6 7 7 7 7 7 7 7 7 8 7 7 7 7 7 7 6 7 7 6 6 6 6 6 5 5 5 5 5 4 5 5 5 5 5 4 5 4 5 5 4 3
11 9 9 10 11 11 11 10 9 10 10 11 14 14 10 12 11 11 11 11 10 11 11 11 11 11 9 9 10 9 8 7 7 7 7 6 6 5 4 3 4 4 4 6 6 6 7 7 8 8 7 7 7 8 7 7 7 7 6 7 7 7 6 7 8 8 8 7 8 8 8 7 7 7 8 8 6 7 6 6 6 5 6 5 5 6 6 5 5 5 5 4 4 4 5 5 5
8 8 10 8 11 10 10 9 7 7 7 11 15 11 8 10 11 12 11 10 10 11 12 11 10 11 11 10 9 8 8 7 8 7 7 6 6 5 5 5 5 5 6 7 7 7 6 7 7 8 7 7 7 7 7 7 7 7 6 6 7 6 7 7 7 7 9 11 10 10 10 11 11 10 10 10 8 8 8 8 7 7 6 6 6 6 6 6 5 5 6 4 4 5 5 2 4
5 12 6 9 10 8 9 8 10 12 12 13 16 9 7 7 9 9 10 10 10 11 11 11 10 10 10 9 9 9 8 7 7 7 6 6 6 7 7 6 5 6 7 7 7 7 5 8 8 7 7 7 8 8 8 8 7 7 7 7 7 8 6 8 8 8 8 9 8 10 10 12 12 11 10 12 14 11 10 9 9 8 8 7 7 7 7 6 6 5 5 5 5 4 5 4 5
8 13 10 7 10 11 12 14 11 4 7 5 5 4 8 7 10 9 8 9 10 10 10 11 10 10 9 9 9 8 8 7 7 7 7 6 6 6 7 7 7 7 7 6 6 7 8 7 8 8 7 7 8 9 9 8 8 8 9 9 9 9 9 9 11 12 12 11 12 11 10 9 12 12 13 13 12 13 15 11 10 10 10 9 7 7 7 7 7 7 6 6 6 6 5 6 6
6 8 10 11 11 10 13 13 8 4 5 5 7 2 6 6 8 8 7 10 11 10 10 10 10 9 9 9 8 8 8 8 7 7 7 7 7 7 8 8 7 7 7 6 7 8 9 8 8 8 8 8 8 9 10 8 8 9 10 10 9 9 10 9 9 9 10 10 9 9 10 8 9 10 9 11 13 13 11 14 14 15 14 10 10 8 8 8 8 7 7 6 6 6 5 6 5
5 10 10 12 13 11 10 5 3 7 7 8 3 3 7 7 7 6 7 8 9 10 10 10 10 10 10 9 9 9 8 8 8 8 8 8 8 8 9 8 8 8 7 7 7 7 9 9 9 10 9 9 9 9 10 10 9 10 10 11 10 10 11 10 11 10 10 10 11 12 10 11 12 12 11 11 9 11 7 9 11 9 9 12 14 12 9 8 8 8 8 7 6 5 6 6 6
7 11 10 10 10 8 5 3 5 4 4 6 4 1 3 6 7 6 4 8 9 9 9 9 9 9 9 9 9 10 10 10 10 9 9 9 9 9 9 9 8 8 8 8 8 9 9 11 11 11 11 11 11 12 11 12 11 11 10 10 10 9 9 9 9 9 9 10 11 11 11 12 12 12 13 12 11 11 10 7 8 8 10 10 7 11 14 10 8 9 10 8 7 7 6 7 5
11 12 7 7 6 5 3 4 3 2 3 5 4 4 3 7 6 6 5 7 7 8 8 8 9 10 9 9 9 9 9 9 10 10 10 9 10 10 10 10 10 9 9 10 10 9 10 10 12 12 12 11 11 12 12 12 12 10 10 10 11 10 9 9 9 10 10 10 11 12 11 11 11 11 12 13 13 13 12 11 10 11 10 9 8 7 11 13 8 8 11 11 9 8 7 7 7
14 13 9 8 6 3 2 1 1 3 1 5 3 2 6 6 4 5 3 6 5 5 6 7 8 9 9 8 8 8 9 10 10 11 11 11 11 11 11 12 11 10 9 10 10 10 11 11 12 13 12 11 12 12 12 12 11 11 10 11 12 12 12 10 10 11 11 11 11 12 12 11 11 12 12 11 13 14 13 12 11 11 12 11 12 10 8 8 12 8 9 8 9 10 9 8 8
15 10 8 8 5 2 4 4 2 4 4 3 3 1 4 1 6 6 6 4 4 4 8 8 8 9 8 7 8 9 10 10 11 11 11 11 11 11 11 12 11 11 11 10 10 10 11 11 11 13 12 12 11 12 12 12 11 11 10 11 11 11 11 10 11 11 12 12 12 12 11 11 12 12 12 12 12 15 12 11 12 12 11 11 11 10 8 6 8 7 7 6 7 10 10 9 7
10 9 7 7 4 3 2 4 1 2 4 6 2 2 4 7 7 7 5 5 5 5 6 7 8 9 9 9 9 9 9 10 10 10 9 9 10 10 11 11 11 11 10 11 10 10 10 11 12 12 12 12 11 11 12 12 11 11 10 10 10 9 10 10 10 11 11 11 11 12 12 12 12 13 12 12 13 15 12 12 13 12 11 11 12 11 10 8 4 6 6 7 7 9 10 9 7
9 9 7 6 2 1 3 2 2 2 7 5 1 1 1 8 7 5 6 5 5 5 6 7 8 9 9 9 9 9 9 10 9 9 9 9 9 9 10 10 10 10 11 10 10 10 10 10 11 12 12 12 11 12 12 12 12 11 11 11 10 10 10 10 10 11 11 10 11 11 12 12 12 13 13 12 13 13 12 13 13 13 13 13 13 12 12 9 5 7 7 8 8 5 9 11 8
9 8 8 5 4 1 1 1 3 6 5 6 4 3 5 7 7 7 7 7 5 6 6 8 9 9 8 9 10 9 9 9 8 8 9 9 9 9 9 9 9 9 9 9 9 9 9 10 11 12 12 12 13 12 11 12 11 12 12 11 11 10 10 10 10 10 10 11 10 11 12 12 12 13 12 11 13 13 14 13 13 13 13 13 13 12 11 11 10 8 9 11 7 4 6 9 8
7 6 4 7 3 3 3 5 5 3 3 3 5 1 2 4 7 7 7 7 6 7 8 9 9 9 9 8 8 7 8 7 7 8 8 8 8 8 8 8 8 8 9 9 9 9 9 10 11 11 11 12 12 12 12 11 11 11 12 11 11 11 10 9 9 9 10 9 10 11 12 12 12 12 11 12 13 13 13 14 14 14 14 14 13 13 12 10 11 10 10 8 4 2 6 8 8
7 5 7 1 5 1 3 3 4 0 3 0 2 3 7 8 7 9 9 9 8 8 9 9 10 10 8 7 7 7 7 7 7 7 7 7 7 8 8 8 8 8 8 9 9 9 10 10 11 11 12 11 11 11 11 10 10 11 11 11 11 11 11 11 10 12 11 11 11 11 11 12 12 11 11 11 12 13 13 14 14 14 14 13 14 13 13 12 11 9 8 8 5 3 3 6 8
5 7 4 7 4 4 2 3 2 2 3 1 4 4 7 7 4 9 11 10 9 10 9 10 10 10 8 7 6 7 7 7 8 8 8 8 8 8 8 8 9 9 9 9 10 9 10 10 11 11 11 12 11 10 10 10 10 10 10 11 11 10 10 11 11 12 11 11 12 11 11 11 12 11 11 11 12 13 13 14 14 14 13 14 14 13 12 12 11 9 8 7 5 3 4 2 1
4 4 11 6 3 7 4 2 3 3 2 0 4 3 3 6 6 10 13 12 12 11 10 10 10 9 8 8 8 8 7 7 6 7 7 6 7 8 8 8 9 9 9 10 10 10 11 10 10 10 11 11 11 10 10 10 10 8 8 9 10 10 10 10 11 11 11 12 13 12 12 12 12 12 12 12 12 12 13 14 14 14 14 14 14 13 12 11 10 8 8 7 5 5 4 5 4
2 3 5 2 5 4 3 1 5 5 3 2 4 4 2 6 5 14 15 13 13 12 11 10 10 9 8 8 8 7 7 7 7 8 8 8 8 8 8 8 9 9 9 9 10 9 10 10 10 10 10 10 10 11 10 10 10 10 11 11 11 11 12 12 12 12 12 13 13 13 13 13 12 12 12 13 12 13 14 14 14 14 15 14 14 13 13 12 10 8 8 7 6 6 6 6 3
6 6 5 5 4 3 4 1 5 4 3 3 2 1 4 6 6 12 14 14 13 13 11 10 9 9 9 8 7 8 8 8 8 8 8 8 7 7 7 7 8 8 8 8 9 9 9 9 11 11 12 12 11 10 11 10 10 12 14 14 14 13 14 13 14 13 13 13 13 13 13 12 12 13 13 13 13 14 14 15 16 15 16 15 15 14 11 13 12 10 9 8 8 7 7 6 1
3 5 5 5 6 6 6 3 4 5 5 2 2 2 6 5 2 7 13 12 12 12 12 11 11 11 10 9 9 8 9 8 8 8 8 7 7 7 7 8 7 8 9 10 9 9 10 10 10 11 11 12 12 12 12 12 12 12 14 14 15 13 13 13 14 13 14 13 13 13 13 13 13 13 13 13 14 12 13 15 15 16 16 16 15 17 18 14 15 9 10 5 7 8 8 7 2
Wind_Direction
249 204 178 197 221 242 275 218 246 144 210 142 143 186 82 98 101 144 79 176 103 57 51 62 50 47 31 68 75 72 35 12 27 318 44 74 77 62 44 22 10 15 39 18 28 26 89 46 18 37 37 36 39 46 54 54 57 65 54 54 48 52 48 38 37 49 45 40 41 40 35 32 33 31 35 31 16 8 16 28 30 50 82 86 77 67 69 62 38 64 77 82 89 96 96 91 100
243 158 172 188 224 266 223 271 260 162 179 169 100 90 97 115 183 48 57 47 52 87 76 74 77 76 76 95 106 135 63 48 29 58 93 76 98 58 51 47 17 36 53 52 16 48 46 35 28 28 44 42 42 44 48 56 55 59 59 48 40 49 53 54 50 40 42 40 36 34 31 29 33 34 39 41 30 28 36 47 54 66 67 54 55 46 41 38 52 59 60 61 72 80 79 104 98
322 283 187 207 246 250 304 228 239 191 163 155 130 90 176 116 80 75 69 77 87 97 99 91 76 45 104 87 60 355 83 74 75 92 88 73 135 40 33 10 33 48 39 34 35 44 56 44 50 39 48 44 45 44 46 52 44 49 58 59 51 45 53 54 49 46 46 43 42 38 30 33 33 27 32 45 46 39 43 53 61 62 62 56 57 44 50 63 70 69 79 87 75 58 76 83 95
293 358 299 293 243 211 244 208 248 185 180 134 120 114 79 76 89 86 85 94 86 120 189 69 4 27 344 76 73 90 83 81 42 38 68 50 31 40 37 5 34 29 56 46 39 49 50 43 41 45 46 47 51 51 50 52 59 50 49 56 53 54 52 58 59 52 50 49 41 30 31 39 29 23 32 44 47 43 56 60 67 78 84 89 91 108 93 72 81 77 96 91 83 76 71 75 69
278 263 297 272 279 209 274 269 184 206 158 42 73 108 92 84 98 101 103 89 78 51 48 110 126 45 53 47 10 4 67 90 78 47 81 59 53 16 19 17 18 45 35 35 42 49 51 38 40 43 44 43 49 52 51 50 50 55 54 57 58 57 53 57 53 53 53 50 42 33 39 31 35 40 36 45 49 54 64 68 83 82 90 105 96 78 69 60 55 68 76 78 80 78 73 66 69
251 271 238 265 260 16 246 184 169 94 24 144 138 87 81 96 111 106 108 87 74 54 37 34 12 141 74 49 13 69 20 28 54 58 12 52 39 38 355 9 30 35 31 40 38 43 44 36 36 40 45 49 49 52 54 54 58 61 61 62 62 63 62 54 59 57 57 50 44 45 52 44 46 45 38 48 55 60 63 76 76 81 94 79 64 67 77 77 78 63 72 77 76 69 63 59 60
294 264 199 204 196 230 226 179 125 118 81 4 76 101 90 101 106 130 119 131 66 71 30 67 87 135 119 117 84 59 46 29 71 54 42 50 24 9 18 19 47 38 36 38 39 53 33 38 39 42 46 49 52 53 58 57 57 61 63 65 64 67 66 61 61 58 49 50 50 62 88 68 63 56 52 56 54 55 69 68 75 76 98 83 83 72 54 78 92 84 83 80 77 72 67 69 67
259 268 115 247 174 210 181 127 121 101 114 36 66 89 90 92 86 65 70 338 43 25 50 50 32 67 48 230 80 67 66 60 63 44 52 48 43 18 359 14 34 49 39 40 41 48 34 38 49 46 49 52 52 53 56 57 58 60 61 62 57 61 65 61 59 58 57 58 58 51 56 77 77 60 62 60 59 62 68 76 73 56 59 77 82 83 75 82 88 82 80 83 86 87 85 80 65
233 248 212 254 193 203 158 126 94 68 95 100 89 73 61 58 49 76 68 70 90 47 36 6 22 272 97 101 66 63 71 80 81 75 55 52 47 11 15 28 19 46 42 38 37 67 46 43 52 52 53 53 54 56 56 56 57 57 58 59 60 58 55 56 55 55 56 58 58 53 52 56 73 73 75 78 73 79 85 89 83 89 86 77 71 65 90 105 95 92 87 84 82 88 83 66 39
222 246 175 241 170 168 117 132 143 77 84 53 55 55 64 75 75 37 63 59 48 61 36 30 30 66 126 76 91 55 29 76 95 73 59 57 51 39 7 37 39 44 42 45 47 51 53 50 56 58 56 56 56 54 56 58 59 59 59 60 59 57 53 52 50 48 47 53 56 55 57 57 64 76 88 94 96 90 92 100 99 84 81 80 88 81 98 100 95 91 89 86 85 74 75 56 40
220 194 302 207 195 158 159 110 104 137 103 99 72 51 44 65 50 60 57 66 49 40 47 324 60 48 54 67 71 160 112 82 65 61 62 62 50 56 56 49 54 41 56 55 51 57 59 64 60 58 61 59 58 55 54 56 58 60 62 64 67 59 51 43 37 30 29 33 49 57 58 58 64 74 87 99 106 115 105 99 107 118 121 92 86 87 113 101 94 93 97 101 98 86 54 48 43
224 203 192 222 177 129 104 117 110 106 125 132 83 38 32 34 36 41 43 42 41 57 35 8 56 350 61 50 16 34 53 49 44 51 48 49 52 51 36 28 43 28 53 57 63 53 52 67 63 64 61 62 51 49 52 53 50 51 58 55 49 59 62 40 33 21 16 25 36 48 55 56 57 73 79 98 122 138 126 130 136 150 160 167 167 154 151 114 112 121 139 129 130 132 96 79 71
262 194 212 196 76 84 90 129 98 126 132 66 48 43 27 50 35 30 55 46 25 34 39 20 8 311 56 58 28 30 40 39 48 51 51 44 44 49 53 32 77 71 58 63 53 51 47 53 64 57 69 77 66 56 60 61 52 37 49 47 39 40 53 30 4 27 27 18 28 35 45 49 47 59 75 85 113 129 154 153 158 170 182 187 177 180 161 159 146 163 165 162 150 153 161 129 157
242 231 288 89 259 106 134 87 144 170 94 89 68 60 46 48 47 29 41 57 37 37 43 2 6 18 72 82 80 47 42 26 55 69 67 70 61 73 114 85 71 69 55 55 54 50 49 53 58 57 59 75 81 100 79 65 66 56 65 44 26 45 55 44 32 36 33 17 10 13 15 16 15 360 36 64 132 144 151 173 181 190 192 195 188 184 170 172 182 169 190 180 176 175 169 178 180
251 189 269 105 119 152 42 249 82 130 86 72 68 68 68 49 50 52 32 53 54 31 109 33 350 315 355 181 70 46 36 17 52 54 69 71 68 74 70 77 70 70 67 50 49 49 45 48 53 61 59 59 59 58 62 80 53 57 61 61 55 51 52 54 54 35 22 13 359 359 350 330 326 333 317 299 314 240 228 196 191 200 210 207 201 197 192 187 191 197 203 203 199 188 186 190 207
190 231 263 226 68 339 80 79 25 112 71 76 83 95 75 60 47 50 49 58 75 54 34 29 30 61 77 68 68 25 55 13 18 53 70 88 106 98 89 92 89 82 68 53 52 44 46 43 40 62 56 52 54 56 63 67 70 55 57 61 61 52 46 55 59 48 19 3 345 334 333 288 223 196 316 249 205 288 247 294 162 224 225 217 218 225 222 224 221 223 225 234 223 218 205 209 210
205 262 201 238 113 10 45 10 347 53 108 90 120 53 67 67 60 70 66 63 69 59 62 48 52 49 61 66 91 82 37 19 18 38 73 93 141 108 119 106 102 96 99 69 39 44 38 38 40 49 60 52 46 49 54 64 55 84 102 85 74 59 48 36 26 73 321 88 340 357 271 289 351 286 212 257 189 230 306 243 243 237 232 236 229 245 250 245 243 243 241 246 244 240 236 232 215
245 309 304 73 36 56 28 40 41 61 93 81 64 54 81 76 79 81 74 74 70 65 75 75 68 63 66 65 65 70 62 35 28 45 45 74 72 88 88 71 70 67 69 75 60 43 31 38 37 33 54 44 43 38 45 49 69 64 64 68 51 50 45 23 32 7 13 8 268 276 347 355 333 6 291 240 236 198 210 234 271 270 263 245 246 250 258 257 252 255 258 256 271 253 255 251 207
341 80 25 61 39 61 13 31 46 77 85 86 75 65 72 62 37 70 78 68 70 72 69 63 75 84 82 69 49 54 58 57 43 41 54 60 61 62 59 73 63 65 73 75 71 40 25 34 31 36 32 33 46 62 51 63 54 41 68 69 62 20 30 28 23 17 9 11 356 358 359 359 347 335 360 346 318 329 325 336 285 288 286 278 270 273 262 260 260 261 265 265 268 263 249 255 235
25 335 84 73 71 60 38 49 67 83 112 100 86 72 66 57 61 88 80 77 71 51 44 41 48 44 52 60 60 53 58 67 56 53 51 49 54 58 63 58 66 64 63 63 71 58 31 32 35 29 25 32 40 49 54 63 56 46 51 61 71 59 46 52 42 21 6 1 356 359 2 353 353 16 348 247 238 226 182 206 237 262 255 248 258 257 221 233 245 243 247 247 236 250 255 237 239
35 59 55 80 70 82 54 68 74 84 81 85 83 79 69 56 57 66 106 90 66 56 44 44 40 40 43 55 60 70 72 65 69 62 60 60 58 57 58 52 47 53 64 80 76 57 40 33 29 39 34 47 46 63 67 56 64 79 62 55 45 33 49 60 60 42 13 353 355 2 359 5 10 22 23 24 12 2 352 288 204 216 256 245 193 269 263 195 206 252 215 205 238 226 243 298 301
80 63 65 77 98 85 73 70 69 79 76 82 77 77 77 76 55 53 65 72 58 57 51 36 45 37 43 63 77 80 72 65 60 58 57 59 59 62 60 71 64 59 63 68 54 59 46 42 28 28 55 46 32 51 50 72 57 51 50 41 61 40 30 41 40 30 22 11 8 18 8 27 8 39 24 15 16 355 354 2 345 352 308 314 318 309 329 308 307 281 285 296 292 305 273 280 311
91 77 68 63 65 85 75 77 69 80 85 81 81 81 85 75 70 57 62 65 74 73 61 61 58 51 60 62 67 75 82 78 72 58 55 54 57 60 64 58 61 60 66 67 65 61 47 43 34 38 55 63 52 37 45 43 49 58 45 33 28 40 23 19 30 23 28 26 22 30 23 20 16 9 14 9 5 360 355 353 348 337 328 336 350 320 315 302 296 294 279 265 288 280 259 260 247
79 86 80 76 79 82 83 85 86 84 86 86 86 92 85 83 72 62 68 69 75 75 71 79 81 76 61 68 58 58 66 70 69 66 56 57 54 52 62 63 68 76 64 61 66 62 54 44 32 26 53 48 62 52 47 55 57 46 38 39 34 25 16 27 25 28 20 43 32 33 23 10 9 10 8 13 6 6 359 357 335 351 343 340 350 323 323 319 294 294 299 289 271 275 315 282 283
95 94 89 90 87 91 95 97 91 91 93 98 94 89 82 77 80 77 66 62 62 74 87 93 87 75 65 59 64 67 63 68 71 71 65 58 64 63 62 69 69 76 76 71 68 68 63 43 38 50 52 52 46 33 58 51 44 42 41 38 41 13 27 30 25 29 30 42 44 30 30 16 6 12 10 2 359 1 359 360 351 356 342 359 336 338 328 321 312 310 312 301 274 272 255 241 258
90 97 100 98 94 94 98 98 96 95 89 82 94 90 92 94 82 62 61 63 61 75 81 84 109 110 89 66 53 41 49 52 59 58 59 66 65 67 65 72 81 74 71 80 84 82 60 66 67 53 43 51 57 52 46 47 40 38 35 34 31 28 38 28 20 35 37 28 46 28 30 22 10 5 4 353 354 349 360 351 356 354 352 349 340 335 328 316 319 302 300 306 316 300 294 308 287
111 105 99 98 101 104 101 99 99 104 104 110 93 91 90 89 97 82 69 63 72 71 70 74 79 81 78 75 66 61 59 48 41 43 63 63 69 68 73 74 73 83 86 79 80 70 75 75 64 57 60 55 55 48 44 44 41 37 26 29 32 33 22 15 43 39 37 40 41 26 22 26 7 14 356 347 348 336 358 348 5 354 356 356 344 344 333 329 316 304 301 314 308 311 301 304 279
105 106 103 96 93 93 100 103 110 111 98 96 88 86 83 75 67 64 61 63 64 66 68 76 75 85 83 80 77 77 68 50 43 51 53 56 61 65 66 73 81 89 95 96 78 63 75 52 61 58 63 63 49 48 48 48 37 41 32 28 27 29 7 20 34 45 41 48 34 26 28 18 7 24 355 338 339 343 350 349 360 358 355 352 354 340 338 340 314 326 325 309 299 270 290 297 315
104 102 106 108 106 93 85 99 101 107 108 71 59 84 66 57 58 65 65 61 76 75 80 74 76 78 81 79 81 75 71 64 52 59 58 59 72 72 76 71 73 92 92 84 84 75 58 42 43 54 57 54 44 40 37 52 33 37 34 25 26 8 19 19 34 38 36 69 62 25 5 16 342 360 351 348 332 360 352 338 352 353 356 348 346 339 335 327 328 323 328 308 301 296 280 300 275
123 131 115 109 92 83 84 111 121 135 89 114 222 66 61 61 63 66 63 59 85 84 75 75 80 88 87 83 78 77 70 71 60 62 66 70 72 76 81 75 68 66 88 95 82 67 38 34 13 38 23 43 20 28 21 32 22 19 26 27 25 7 27 18 29 29 39 29 70 24 342 358 345 357 349 349 344 349 353 357 345 355 353 342 334 344 330 338 333 330 328 304 336 299 326 299 250
121 155 93 67 82 76 69 73 94 100 118 168 181 91 78 76 66 60 75 72 69 84 77 75 77 88 91 92 89 90 85 69 63 65 78 75 79 78 74 76 71 64 79 80 72 56 30 32 11 34 20 18 17 25 14 16 22 8 13 23 30 7 18 22 17 21 33 34 5 53 2 353 338 346 352 341 342 341 349 4 343 2 355 335 344 353 328 333 337 328 342 322 326 284 304 8 343
146 126 87 89 84 87 77 43 69 92 106 58 108 74 77 72 70 71 71 72 78 78 83 78 75 73 87 89 88 80 84 92 85 79 81 80 75 81 73 70 62 62 54 51 71 17 44 35 7 21 28 25 20 13 3 4 5 11 12 25 28 5 9 13 21 20 11 20 18 18 18 354 331 340 333 340 327 337 351 349 2 358 337 338 347 343 330 334 341 324 335 320 326 322 306 11 346
105 95 99 98 97 97 94 75 82 69 84 77 54 97 103 80 77 75 69 74 82 84 81 84 86 90 86 86 85 89 91 88 86 77 72 82 81 74 77 77 70 53 38 23 20 22 43 42 30 24 20 12 6 5 0 355 6 3 15 24 12 355 356 4 10 348 16 9 2 9 10 344 334 327 320 326 320 319 341 330 352 346 320 342 335 330 342 341 339 328 323 320 314 306 325 331 86
106 114 97 95 96 103 89 87 66 75 82 82 72 78 76 84 81 82 82 79 81 82 84 85 84 82 90 91 93 91 87 76 68 67 55 56 73 72 69 62 63 59 56 37 37 28 34 36 34 21 5 9 1 356 354 346 4 354 4 2 23 351 352 348 352 328 349 349 347 359 347 340 323 335 320 321 319 315 323 326 322 332 313 319 329 311 340 345 345 329 314 313 314 304 308 311 280
95 97 109 109 104 90 102 97 88 101 90 88 89 85 84 80 79 75 80 78 79 80 79 78 83 83 82 88 86 84 84 83 78 68 64 74 82 89 86 79 62 53 48 44 40 31 26 29 24 26 12 8 357 347 348 348 351 356 2 348 6 357 344 10 331 323 346 323 339 335 322 326 319 322 323 311 313 317 318 315 314 318 297 298 305 309 325 342 347 330 319 308 290 296 314 305 332
107 111 114 117 107 101 96 101 110 95 92 83 80 82 78 72 75 81 75 71 72 79 81 78 77 83 88 84 84 84 86 88 90 94 83 72 71 66 74 93 72 49 43 42 39 30 24 24 12 20 12 2 348 357 360 359 0 358 2 356 359 3 344 358 344 333 326 319 332 316 308 303 304 302 306 308 300 305 308 307 308 294 293 286 293 295 314 319 334 320 319 311 301 279 262 281 264
111 129 112 89 97 101 104 102 99 86 87 84 88 85 90 88 69 63 67 72 75 74 76 78 76 72 76 80 83 87 84 87 103 108 109 107 106 99 72 46 60 64 48 35 32 30 25 18 14 13 4 6 1 1 4 358 359 359 358 359 352 353 350 347 343 339 335 332 326 316 310 303 293 292 289 294 292 294 292 301 293 290 297 293 286 285 287 301 307 300 308 280 292 286 273 256 238
113 127 119 121 128 108 111 115 118 114 99 93 90 88 81 77 83 78 74 66 61 60 67 71 78 81 76 77 75 72 82 89 90 93 101 110 109 116 104 83 49 44 45 33 28 24 22 19 18 12 12 5 13 6 356 1 358 0 346 353 343 344 342 342 336 338 337 328 319 317 311 303 300 290 285 283 285 284 289 296 297 293 290 291 284 280 281 273 275 285 303 305 281 285 280 271 246
146 131 117 109 100 107 110 118 127 114 101 103 88 73 64 81 77 76 69 67 65 63 59 60 60 60 66 68 73 78 74 71 72 76 76 79 90 91 90 75 63 46 42 38 26 24 22 19 17 11 16 8 12 13 357 358 350 347 339 337 332 331 334 337 326 333 319 323 324 319 318 314 308 301 293 286 280 276 276 283 283 288 284 286 281 277 263 258 271 276 285 296 309 283 266 244 237
127 152 124 131 129 139 130 113 121 130 100 102 93 88 79 84 83 77 74 75 75 70 69 66 59 60 54 51 51 57 62 68 68 59 64 71 69 72 69 64 55 48 38 39 29 24 22 20 15 13 15 14 9 10 355 347 344 329 331 324 322 317 327 318 324 331 331 329 332 329 335 333 323 317 309 299 285 280 274 273 280 274 276 280 283 278 273 271 253 258 261 264 274 283 273 270 226
130 95 107 128 152 120 123 130 122 108 114 114 97 95 99 86 88 89 80 71 68 67 71 73 76 77 73 65 62 52 52 50 59 68 66 62 64 61 57 52 56 54 44 36 28 23 13 17 15 11 13 10 11 358 359 345 344 347 345 337 339 340 338 349 335 340 352 333 336 340 334 327 324 329 327 319 305 290 280 274 275 278 273 275 276 277 277 271 267 261 255 262 264 287 288 275 275
123 121 155 125 131 128 119 134 132 136 135 166 106 72 79 82 71 76 86 83 71 64 71 72 67 68 68 69 69 76 72 58 55 57 58 57 58 60 52 52 45 42 39 31 25 24 19 20 17 16 17 17 14 10 7 1 6 6 360 1 1 358 359 1 354 352 345 354 344 345 341 342 336 331 330 329 321 323 307 292 279 276 278 272 264 272 281 279 269 262 252 247 252 244 262 283 272
150 112 137 133 120 137 156 158 187 141 84 103 184 60 104 95 80 74 78 81 78 75 67 67 69 65 65 62 62 59 62 73 69 62 56 59 58 59 57 49 45 45 38 36 35 30 29 27 25 25 29 28 21 20 19 16 22 19 19 15 12 10 3 6 357 2 352 355 350 350 346 348 351 339 326 327 338 325 327 322 326 317 304 285 267 267 269 272 272 265 264 250 249 253 251 266 270
103 139 143 140 137 157 159 171 57 104 101 112 109 88 97 112 92 91 83 81 83 78 72 68 68 66 63 68 65 62 65 67 73 65 66 62 57 54 54 52 50 45 38 38 38 37 40 41 41 42 42 39 34 29 34 32 31 31 30 28 26 24 20 14 13 11 11 7 6 4 358 1 358 352 351 342 324 322 315 322 319 314 303 304 308 288 266 267 269 264 249 250 254 255 260 264 279
139 147 148 147 152 140 164 156 104 110 206 97 112 306 110 83 111 120 132 93 78 69 68 72 72 74 73 67 72 77 70 66 63 69 66 63 61 58 57 57 55 50 47 47 51 53 57 52 51 52 50 49 44 43 44 42 42 40 37 32 31 30 24 21 17 16 15 8 12 7 6 3 2 0 357 357 345 335 333 332 312 313 310 306 290 293 288 275 277 286 270 248 240 246 248 260 265
130 131 157 152 133 157 191 120 144 134 280 68 51 319 53 98 117 130 99 81 78 77 73 71 73 69 69 73 77 79 85 82 79 77 76 72 70 70 69 70 67 63 61 63 61 62 60 60 57 55 53 49 45 44 45 45 43 40 41 36 33 30 26 23 19 17 14 10 11 9 4 3 359 357 356 355 354 350 347 336 326 320 312 296 281 279 287 289 262 269 286 271 250 249 244 250 250
145 141 156 150 163 146 211 354 324 246 112 84 49 341 317 96 77 62 72 56 58 93 91 83 82 82 79 79 77 78 78 80 80 80 79 79 76 76 73 71 69 65 61 59 60 59 62 60 58 56 51 49 46 44 42 43 41 38 37 34 30 26 21 20 16 15 10 10 9 6 4 2 1 357 353 351 351 350 345 342 333 327 318 312 303 293 283 284 281 266 262 284 293 260 256 251 249
153 155 157 164 160 176 213 208 240 268 74 78 102 4 282 218 121 106 88 106 86 67 84 82 83 82 80 74 77 76 78 78 79 79 78 74 74 71 70 67 65 63 60 59 60 60 59 58 57 56 52 48 45 44 43 40 38 36 34 30 31 25 21 17 15 13 8 6 5 5 0 359 1 355 352 349 350 347 345 340 336 329 326 321 313 301 287 272 285 283 274 281 285 292 272 252 251
172 156 165 184 163 204 227 208 212 10 47 106 114 146 200 65 74 103 120 105 99 64 66 85 90 89 87 83 79 79 81 83 79 76 72 70 68 65 61 61 60 58 58 58 56 54 54 52 51 52 48 44 44 42 45 42 39 35 28 26 25 21 19 17 12 11 7 3 2 360 359 358 355 353 350 346 347 345 344 340 338 334 331 325 318 313 298 287 254 249 240 250 259 264 261 254 249
187 174 177 212 159 180 317 37 46 247 125 106 113 159 3 106 110 115 117 105 103 102 94 88 92 93 91 91 88 85 81 76 76 77 75 67 62 63 61 60 59 55 52 51 50 48 46 44 44 50 50 45 44 44 41 41 39 33 30 26 20 18 18 15 16 10 7 3 1 358 358 354 352 350 344 343 340 343 342 341 336 334 330 328 324 321 315 307 274 237 223 232 230 242 283 273 255
197 159 196 280 317 91 273 347 17 23 52 123 110 256 121 189 103 126 110 120 135 126 114 107 107 105 100 94 91 87 85 84 79 72 69 71 69 67 64 62 58 55 51 47 43 42 41 41 41 49 48 46 45 42 42 40 38 34 30 26 22 20 17 14 15 8 4 0 1 354 356 350 347 344 343 340 339 339 341 339 338 333 334 331 328 325 324 313 298 252 248 248 223 172 267 282 265
177 230 225 220 252 35 324 25 347 37 101 168 169 349 43 72 127 125 135 140 144 148 130 132 123 114 110 105 99 95 89 82 75 81 82 78 74 68 68 60 57 55 51 46 43 39 37 38 44 49 47 46 45 42 41 40 37 36 31 26 24 21 19 15 10 7 359 356 354 351 351 348 345 341 341 340 339 338 340 340 338 338 335 333 328 326 324 321 313 301 281 263 240 164 235 262 278
157 197 212 36 46 135 101 149 46 220 246 75 142 180 115 123 153 147 155 152 151 158 145 136 128 122 118 109 106 98 90 83 81 82 83 82 72 66 61 57 57 55 55 50 48 43 41 42 49 49 47 47 45 44 42 37 36 34 31 27 22 18 15 13 6 1 358 354 352 348 348 346 344 345 340 338 338 341 344 343 339 339 339 334 332 330 330 327 318 301 282 272 254 213 242 255 258
138 214 159 95 43 354 294 314 135 254 311 78 208 198 157 187 152 160 168 158 165 161 152 136 133 136 131 120 113 104 92 86 82 84 82 76 68 64 66 69 65 58 57 60 59 56 54 54 52 52 48 43 39 38 37 33 26 25 22 19 15 12 5 4 359 356 352 351 352 350 350 348 349 345 342 341 340 342 345 343 340 341 339 339 338 334 334 334 331 318 300 281 254 209 218 229 159
305 352 130 201 185 215 179 261 254 285 285 161 190 220 197 207 136 170 175 169 166 163 151 149 147 136 124 120 113 108 105 99 86 80 81 78 79 79 75 71 71 71 66 60 58 60 58 55 51 48 48 43 38 33 28 25 22 15 10 7 6 4 2 359 356 355 352 354 354 353 352 347 344 345 345 343 340 344 345 344 342 345 342 341 341 338 338 339 336 327 312 291 258 237 234 228 211
138 133 188 238 274 301 210 205 314 284 298 285 135 185 224 203 152 176 170 167 166 157 161 156 144 136 132 127 123 118 108 100 94 88 87 87 81 76 72 67 67 63 60 62 61 57 55 51 47 42 39 40 35 30 23 18 16 12 9 5 4 1 359 358 356 357 356 357 356 354 351 345 344 344 346 342 344 345 348 344 346 350 344 344 344 343 345 339 337 329 321 304 291 277 260 247 219
172 203 198 183 236 35 309 187 262 294 310 314 318 235 138 95 112 162 163 161 164 162 157 146 139 129 121 116 114 108 104 99 97 96 93 92 90 87 83 73 69 68 67 58 53 49 47 46 42 36 29 25 29 27 20 18 12 10 7 6 4 5 3 3 2 2 1 359 357 354 351 345 343 345 344 345 345 347 346 347 347 354 350 347 347 350 349 337 335 334 319 310 294 272 259 263 234
234 210 209 209 190 195 221 205 167 237 265 306 289 326 108 106 140 154 155 156 161 160 147 145 138 130 124 121 116 115 109 104 102 101 99 97 94 88 80 74 65 58 53 52 49 43 43 37 39 34 27 24 21 20 20 12 11 9 9 6 5 5 3 359 359 358 358 355 351 349 346 342 341 341 341 344 347 345 345 346 349 356 353 351 357 353 353 346 345 338 321 297 296 277 264 253 159